owner,sensor,date,latitude,longitude,vertical_datum,direction_of_sea_water_velocity,sea_water_speed,upward_sea_water_velocity,qcFlag 
TABS,ioos:station:wmo:42047:1,2017-04-01T00:00:00Z,27.8966,-93.5973,2.0,18.28551953,3.633469416,-99999.0,'11133222,11111222,99999999' 
TABS,ioos:station:wmo:42047:1,2017-04-01T00:30:00Z,27.8966,-93.5973,2.0,20.17284078,5.422637735,-99999.0,'11133222,11111222,99999999' 
TABS,ioos:station:wmo:42047:1,2017-04-01T01:00:00Z,27.8966,-93.5973,2.0,343.8999611,5.589221771,-99999.0,'11133222,11111222,99999999' 
TABS,ioos:station:wmo:42047:1,2017-04-01T01:30:00Z,27.8966,-93.5973,2.0,0.391034176,7.33017053,-99999.0,'11133222,11111222,99999999' 
TABS,ioos:station:wmo:42047:1,2017-04-01T02:00:00Z,27.8966,-93.5973,2.0,349.7429615,11.84937551,-99999.0,'11111222,11111222,99999999' 
TABS,ioos:station:wmo:42047:1,2017-04-01T02:30:00Z,27.8966,-93.5973,2.0,340.6244025,10.3989711,-99999.0,'11111222,11111222,99999999' 
TABS,ioos:station:wmo:42047:1,2017-04-01T03:00:00Z,27.8966,-93.5973,2.0,337.5513505,14.95314348,-99999.0,'11111222,11111222,99999999' 
TABS,ioos:station:wmo:42047:1,2017-04-01T03:30:00Z,27.8966,-93.5973,2.0,341.9533909,19.14170578,-99999.0,'11111222,11111222,99999999' 
TABS,ioos:station:wmo:42047:1,2017-04-01T04:00:00Z,27.8966,-93.5973,2.0,345.7691616,21.39661655,-99999.0,'11111222,11111222,99999999' 
TABS,ioos:station:wmo:42047:1,2017-04-01T04:30:00Z,27.8966,-93.5973,2.0,346.7571028,25.05633054,-99999.0,'11111222,11111222,99999999' 
TABS,ioos:station:wmo:42047:1,2017-04-01T05:00:00Z,27.8966,-93.5973,2.0,352.5615516,27.18882123,-99999.0,'11111222,11111222,99999999' 
TABS,ioos:station:wmo:42047:1,2017-04-01T05:30:00Z,27.8966,-93.5973,2.0,352.7925584,28.37421541,-99999.0,'11111222,11111222,99999999' 
TABS,ioos:station:wmo:42047:1,2017-04-01T06:00:00Z,27.8966,-93.5973,2.0,356.1886163,30.83821331,-99999.0,'11111222,11111222,99999999' 
TABS,ioos:station:wmo:42047:1,2017-04-01T06:30:00Z,27.8966,-93.5973,2.0,354.7210703,36.73582448,-99999.0,'11111222,11111222,99999999' 
TABS,ioos:station:wmo:42047:1,2017-04-01T07:00:00Z,27.8966,-93.5973,2.0,354.0750642,37.19873116,-99999.0,'11111222,11111222,99999999' 
TABS,ioos:station:wmo:42047:1,2017-04-01T07:30:00Z,27.8966,-93.5973,2.0,359.6953018,41.34058539,-99999.0,'11111222,11144222,99999999' 
TABS,ioos:station:wmo:42047:1,2017-04-01T08:00:00Z,27.8966,-93.5973,2.0,0.38422378,44.76100535,-99999.0,'11111222,11111222,99999999' 
TABS,ioos:station:wmo:42047:1,2017-04-01T08:30:00Z,27.8966,-93.5973,2.0,7.553978268,40.77383965,-99999.0,'11111222,11111222,99999999' 
TABS,ioos:station:wmo:42047:1,2017-04-01T09:00:00Z,27.8966,-93.5973,2.0,6.736205921,39.64365523,-99999.0,'11111222,11111222,99999999' 
TABS,ioos:station:wmo:42047:1,2017-04-01T09:30:00Z,27.8966,-93.5973,2.0,11.51607488,40.37272842,-99999.0,'11111222,11111222,99999999' 
TABS,ioos:station:wmo:42047:1,2017-04-01T10:00:00Z,27.8966,-93.5973,2.0,12.370633,42.38403473,-99999.0,'11111222,11111222,99999999' 
TABS,ioos:station:wmo:42047:1,2017-04-01T10:30:00Z,27.8966,-93.5973,2.0,11.49178357,38.34874183,-99999.0,'11111222,11111222,99999999' 
TABS,ioos:station:wmo:42047:1,2017-04-01T11:00:00Z,27.8966,-93.5973,2.0,16.8786536,38.88506397,-99999.0,'11111222,11111222,99999999' 
TABS,ioos:station:wmo:42047:1,2017-04-01T11:30:00Z,27.8966,-93.5973,2.0,18.68875977,38.57384088,-99999.0,'11111222,11111222,99999999' 
TABS,ioos:station:wmo:42047:1,2017-04-01T12:00:00Z,27.8966,-93.5973,2.0,18.87820275,37.21163393,-99999.0,'11111222,11111222,99999999' 
TABS,ioos:station:wmo:42047:1,2017-04-01T12:30:00Z,27.8966,-93.5973,2.0,22.6270975,37.37692336,-99999.0,'11111222,11111222,99999999' 
TABS,ioos:station:wmo:42047:1,2017-04-01T13:00:00Z,27.8966,-93.5973,2.0,25.17635933,36.71807865,-99999.0,'11111222,11111222,99999999' 
TABS,ioos:station:wmo:42047:1,2017-04-01T13:30:00Z,27.8966,-93.5973,2.0,15.76545277,34.08207153,-99999.0,'11111222,11111222,99999999' 
TABS,ioos:station:wmo:42047:1,2017-04-01T14:00:00Z,27.8966,-93.5973,2.0,13.00140521,32.49294847,-99999.0,'11111222,11111222,99999999' 
TABS,ioos:station:wmo:42047:1,2017-04-01T14:30:00Z,27.8966,-93.5973,2.0,13.37207851,32.21332178,-99999.0,'11111222,11111222,99999999' 
TABS,ioos:station:wmo:42047:1,2017-04-01T15:00:00Z,27.8966,-93.5973,2.0,14.46935563,32.09808094,-99999.0,'11111222,11111222,99999999' 
TABS,ioos:station:wmo:42047:1,2017-04-01T15:30:00Z,27.8966,-93.5973,2.0,9.19892395,31.08982149,-99999.0,'11111222,11111222,99999999' 
TABS,ioos:station:wmo:42047:1,2017-04-01T16:00:00Z,27.8966,-93.5973,2.0,15.53256235,33.34789049,-99999.0,'11111222,11111222,99999999' 
TABS,ioos:station:wmo:42047:1,2017-04-01T16:30:00Z,27.8966,-93.5973,2.0,17.37204297,32.55492743,-99999.0,'11111222,11111222,99999999' 
TABS,ioos:station:wmo:42047:1,2017-04-01T17:00:00Z,27.8966,-93.5973,2.0,20.02290652,34.58013447,-99999.0,'11111222,11111222,99999999' 
TABS,ioos:station:wmo:42047:1,2017-04-01T17:30:00Z,27.8966,-93.5973,2.0,20.20731211,25.56343091,-99999.0,'11111222,11111222,99999999' 
TABS,ioos:station:wmo:42047:1,2017-04-01T18:00:00Z,27.8966,-93.5973,2.0,30.76661009,34.36680521,-99999.0,'11111222,11111222,99999999' 
TABS,ioos:station:wmo:42047:1,2017-04-01T18:30:00Z,27.8966,-93.5973,2.0,28.87521826,30.06824405,-99999.0,'11111222,11111222,99999999' 
TABS,ioos:station:wmo:42047:1,2017-04-01T19:00:00Z,27.8966,-93.5973,2.0,44.84274804,23.17197661,-99999.0,'11111222,11111222,99999999' 
TABS,ioos:station:wmo:42047:1,2017-04-01T19:30:00Z,27.8966,-93.5973,2.0,38.84459693,22.28923507,-99999.0,'11111222,11111222,99999999' 
TABS,ioos:station:wmo:42047:1,2017-04-01T20:00:00Z,27.8966,-93.5973,2.0,44.09378724,21.01077105,-99999.0,'11111222,11111222,99999999' 
TABS,ioos:station:wmo:42047:1,2017-04-01T20:30:00Z,27.8966,-93.5973,2.0,42.14890069,12.65165997,-99999.0,'11111222,11111222,99999999' 
TABS,ioos:station:wmo:42047:1,2017-04-01T21:00:00Z,27.8966,-93.5973,2.0,50.44042454,11.33648976,-99999.0,'11111222,11111222,99999999' 
TABS,ioos:station:wmo:42047:1,2017-04-01T21:30:00Z,27.8966,-93.5973,2.0,56.37769657,9.391080875,-99999.0,'11133222,11111222,99999999' 
TABS,ioos:station:wmo:42047:1,2017-04-01T22:00:00Z,27.8966,-93.5973,2.0,47.17925348,9.298107334,-99999.0,'11133222,11111222,99999999' 
TABS,ioos:station:wmo:42047:1,2017-04-01T22:30:00Z,27.8966,-93.5973,2.0,32.28356086,6.552984053,-99999.0,'11133222,11111222,99999999' 
TABS,ioos:station:wmo:42047:1,2017-04-01T23:00:00Z,27.8966,-93.5973,2.0,0.56560966,3.040148023,-99999.0,'11133222,11111222,99999999' 
TABS,ioos:station:wmo:42047:1,2017-04-01T23:30:00Z,27.8966,-93.5973,2.0,243.2321328,2.531244753,-99999.0,'11133222,11111222,99999999' 
TABS,ioos:station:wmo:42047:1,2017-04-02T00:00:00Z,27.8966,-93.5973,2.0,325.1917937,5.115310352,-99999.0,'11133222,11111222,99999999' 
TABS,ioos:station:wmo:42047:1,2017-04-02T00:30:00Z,27.8966,-93.5973,2.0,290.9372017,10.21440649,-99999.0,'11111222,11111222,99999999' 
TABS,ioos:station:wmo:42047:1,2017-04-02T01:00:00Z,27.8966,-93.5973,2.0,307.1312585,10.53610934,-99999.0,'11111222,11111222,99999999' 
TABS,ioos:station:wmo:42047:1,2017-04-02T01:30:00Z,27.8966,-93.5973,2.0,318.7236326,13.06662925,-99999.0,'11111222,11111222,99999999' 
TABS,ioos:station:wmo:42047:1,2017-04-02T02:00:00Z,27.8966,-93.5973,2.0,303.1611554,17.71510655,-99999.0,'11111222,11111222,99999999' 
TABS,ioos:station:wmo:42047:1,2017-04-02T02:30:00Z,27.8966,-93.5973,2.0,304.7863666,15.95054858,-99999.0,'11111222,11111222,99999999' 
TABS,ioos:station:wmo:42047:1,2017-04-02T03:00:00Z,27.8966,-93.5973,2.0,302.5373612,21.3630569,-99999.0,'11111222,11111222,99999999' 
TABS,ioos:station:wmo:42047:1,2017-04-02T03:30:00Z,27.8966,-93.5973,2.0,311.6646575,21.63168972,-99999.0,'11111222,11111222,99999999' 
TABS,ioos:station:wmo:42047:1,2017-04-02T04:00:00Z,27.8966,-93.5973,2.0,313.5419275,21.94863321,-99999.0,'11111222,11111222,99999999' 
TABS,ioos:station:wmo:42047:1,2017-04-02T04:30:00Z,27.8966,-93.5973,2.0,322.5399809,24.84331902,-99999.0,'11111222,11111222,99999999' 
TABS,ioos:station:wmo:42047:1,2017-04-02T05:00:00Z,27.8966,-93.5973,2.0,325.2547658,25.89779913,-99999.0,'11111222,11111222,99999999' 
TABS,ioos:station:wmo:42047:1,2017-04-02T05:30:00Z,27.8966,-93.5973,2.0,324.4679585,24.93279367,-99999.0,'11111222,11111222,99999999' 
TABS,ioos:station:wmo:42047:1,2017-04-02T06:00:00Z,27.8966,-93.5973,2.0,328.3113907,28.59281903,-99999.0,'11111222,11111222,99999999' 
TABS,ioos:station:wmo:42047:1,2017-04-02T06:30:00Z,27.8966,-93.5973,2.0,339.7873211,33.22623662,-99999.0,'11111222,11111222,99999999' 
TABS,ioos:station:wmo:42047:1,2017-04-02T07:00:00Z,27.8966,-93.5973,2.0,339.2458925,38.20948181,-99999.0,'11111222,11111222,99999999' 
TABS,ioos:station:wmo:42047:1,2017-04-02T07:30:00Z,27.8966,-93.5973,2.0,343.7647548,39.88040371,-99999.0,'11111222,11111222,99999999' 
TABS,ioos:station:wmo:42047:1,2017-04-02T08:00:00Z,27.8966,-93.5973,2.0,346.3789734,44.20327703,-99999.0,'11111222,11111222,99999999' 
TABS,ioos:station:wmo:42047:1,2017-04-02T08:30:00Z,27.8966,-93.5973,2.0,349.3261841,42.05773413,-99999.0,'11111222,11111222,99999999' 
TABS,ioos:station:wmo:42047:1,2017-04-02T09:00:00Z,27.8966,-93.5973,2.0,347.1347604,41.90192597,-99999.0,'11111222,11111222,99999999' 
TABS,ioos:station:wmo:42047:1,2017-04-02T09:30:00Z,27.8966,-93.5973,2.0,351.2731955,40.99461916,-99999.0,'11111222,11111222,99999999' 
TABS,ioos:station:wmo:42047:1,2017-04-02T10:00:00Z,27.8966,-93.5973,2.0,351.0873005,38.91996146,-99999.0,'11111222,11111222,99999999' 
TABS,ioos:station:wmo:42047:1,2017-04-02T10:30:00Z,27.8966,-93.5973,2.0,351.4666715,40.56913605,-99999.0,'11111222,11111222,99999999' 
TABS,ioos:station:wmo:42047:1,2017-04-02T11:00:00Z,27.8966,-93.5973,2.0,359.3001899,36.83274901,-99999.0,'11111222,11144222,99999999' 
TABS,ioos:station:wmo:42047:1,2017-04-02T11:30:00Z,27.8966,-93.5973,2.0,1.631257701,41.45679679,-99999.0,'11111222,11111222,99999999' 
TABS,ioos:station:wmo:42047:1,2017-04-02T12:00:00Z,27.8966,-93.5973,2.0,5.028922221,39.13061845,-99999.0,'11111222,11111222,99999999' 
TABS,ioos:station:wmo:42047:1,2017-04-02T12:30:00Z,27.8966,-93.5973,2.0,8.689317685,39.71583563,-99999.0,'11111222,11111222,99999999' 
TABS,ioos:station:wmo:42047:1,2017-04-02T13:00:00Z,27.8966,-93.5973,2.0,20.45136985,38.37902682,-99999.0,'11111222,11111222,99999999' 
TABS,ioos:station:wmo:42047:1,2017-04-02T13:30:00Z,27.8966,-93.5973,2.0,21.25388125,36.91049173,-99999.0,'11111222,11111222,99999999' 
TABS,ioos:station:wmo:42047:1,2017-04-02T14:00:00Z,27.8966,-93.5973,2.0,25.57800866,38.93572267,-99999.0,'11111222,11111222,99999999' 
TABS,ioos:station:wmo:42047:1,2017-04-02T14:30:00Z,27.8966,-93.5973,2.0,29.71725371,38.38875486,-99999.0,'11111222,11111222,99999999' 
TABS,ioos:station:wmo:42047:1,2017-04-02T15:00:00Z,27.8966,-93.5973,2.0,29.74714253,33.516666,-99999.0,'11111222,11111222,99999999' 
TABS,ioos:station:wmo:42047:1,2017-04-02T15:30:00Z,27.8966,-93.5973,2.0,34.43382057,33.12393847,-99999.0,'11111222,11111222,99999999' 
TABS,ioos:station:wmo:42047:1,2017-04-02T16:00:00Z,27.8966,-93.5973,2.0,33.26327204,33.12761537,-99999.0,'11111222,11111222,99999999' 
TABS,ioos:station:wmo:42047:1,2017-04-02T16:30:00Z,27.8966,-93.5973,2.0,31.34466178,32.25788121,-99999.0,'11111222,11111222,99999999' 
TABS,ioos:station:wmo:42047:1,2017-04-02T17:00:00Z,27.8966,-93.5973,2.0,32.85714549,31.09423258,-99999.0,'11111222,11111222,99999999' 
TABS,ioos:station:wmo:42047:1,2017-04-02T17:30:00Z,27.8966,-93.5973,2.0,38.23059055,32.51316656,-99999.0,'11111222,11111222,99999999' 
TABS,ioos:station:wmo:42047:1,2017-04-02T18:00:00Z,27.8966,-93.5973,2.0,32.6509364,29.35956403,-99999.0,'11111222,11111222,99999999' 
TABS,ioos:station:wmo:42047:1,2017-04-02T18:30:00Z,27.8966,-93.5973,2.0,39.14781221,27.87802719,-99999.0,'11111222,11111222,99999999' 
TABS,ioos:station:wmo:42047:1,2017-04-02T19:00:00Z,27.8966,-93.5973,2.0,43.78734235,25.39082118,-99999.0,'11111222,11111222,99999999' 
TABS,ioos:station:wmo:42047:1,2017-04-02T19:30:00Z,27.8966,-93.5973,2.0,55.33008388,24.48804811,-99999.0,'11111222,11111222,99999999' 
TABS,ioos:station:wmo:42047:1,2017-04-02T20:00:00Z,27.8966,-93.5973,2.0,66.54594271,28.26530382,-99999.0,'11111222,11111222,99999999' 
TABS,ioos:station:wmo:42047:1,2017-04-02T20:30:00Z,27.8966,-93.5973,2.0,69.67505761,21.47722515,-99999.0,'11111222,11111222,99999999' 
TABS,ioos:station:wmo:42047:1,2017-04-02T21:00:00Z,27.8966,-93.5973,2.0,87.61088821,22.54960088,-99999.0,'11111222,11111222,99999999' 
TABS,ioos:station:wmo:42047:1,2017-04-02T21:30:00Z,27.8966,-93.5973,2.0,66.86323323,17.05146328,-99999.0,'11111222,11111222,99999999' 
TABS,ioos:station:wmo:42047:1,2017-04-02T22:00:00Z,27.8966,-93.5973,2.0,74.56570985,18.78755173,-99999.0,'11111222,11111222,99999999' 
TABS,ioos:station:wmo:42047:1,2017-04-02T22:30:00Z,27.8966,-93.5973,2.0,67.78000814,18.29890707,-99999.0,'11111222,11111222,99999999' 
TABS,ioos:station:wmo:42047:1,2017-04-02T23:00:00Z,27.8966,-93.5973,2.0,68.13574839,10.1501133,-99999.0,'11111222,11111222,99999999' 
TABS,ioos:station:wmo:42047:1,2017-04-02T23:30:00Z,27.8966,-93.5973,2.0,58.03774948,12.6945382,-99999.0,'11111222,11111222,99999999' 
TABS,ioos:station:wmo:42047:1,2017-04-03T00:00:00Z,27.8966,-93.5973,2.0,82.40987983,8.403630168,-99999.0,'11133222,11111222,99999999' 
TABS,ioos:station:wmo:42047:1,2017-04-03T00:30:00Z,27.8966,-93.5973,2.0,54.82257629,9.616194674,-99999.0,'11133222,11111222,99999999' 
TABS,ioos:station:wmo:42047:1,2017-04-03T01:00:00Z,27.8966,-93.5973,2.0,95.98545358,8.91862097,-99999.0,'11133222,11111222,99999999' 
TABS,ioos:station:wmo:42047:1,2017-04-03T01:30:00Z,27.8966,-93.5973,2.0,75.18770676,8.057772645,-99999.0,'11133222,11111222,99999999' 
TABS,ioos:station:wmo:42047:1,2017-04-03T02:00:00Z,27.8966,-93.5973,2.0,77.76543799,8.871488038,-99999.0,'11133222,11111222,99999999' 
TABS,ioos:station:wmo:42047:1,2017-04-03T02:30:00Z,27.8966,-93.5973,2.0,93.60800381,11.28236234,-99999.0,'11111222,11111222,99999999' 
TABS,ioos:station:wmo:42047:1,2017-04-03T03:00:00Z,27.8966,-93.5973,2.0,97.02127381,10.96220781,-99999.0,'11111222,11111222,99999999' 
TABS,ioos:station:wmo:42047:1,2017-04-03T03:30:00Z,27.8966,-93.5973,2.0,111.9559254,13.07857026,-99999.0,'11111222,11111222,99999999' 
TABS,ioos:station:wmo:42047:1,2017-04-03T04:00:00Z,27.8966,-93.5973,2.0,120.6550077,16.55328366,-99999.0,'11111222,11111222,99999999' 
TABS,ioos:station:wmo:42047:1,2017-04-03T04:30:00Z,27.8966,-93.5973,2.0,124.0443113,16.59417368,-99999.0,'11111222,11111222,99999999' 
TABS,ioos:station:wmo:42047:1,2017-04-03T05:00:00Z,27.8966,-93.5973,2.0,121.1676292,14.9359064,-99999.0,'11111222,11111222,99999999' 
TABS,ioos:station:wmo:42047:1,2017-04-03T05:30:00Z,27.8966,-93.5973,2.0,116.3342696,16.6588415,-99999.0,'11111222,11111222,99999999' 
TABS,ioos:station:wmo:42047:1,2017-04-03T06:00:00Z,27.8966,-93.5973,2.0,132.0218811,17.1492857,-99999.0,'11111222,11111222,99999999' 
TABS,ioos:station:wmo:42047:1,2017-04-03T06:30:00Z,27.8966,-93.5973,2.0,126.5048759,15.70031847,-99999.0,'11111222,11111222,99999999' 
TABS,ioos:station:wmo:42047:1,2017-04-03T07:00:00Z,27.8966,-93.5973,2.0,123.6372789,15.07398421,-99999.0,'11111222,11111222,99999999' 
TABS,ioos:station:wmo:42047:1,2017-04-03T07:30:00Z,27.8966,-93.5973,2.0,128.5879534,16.20928746,-99999.0,'11111222,11111222,99999999' 
TABS,ioos:station:wmo:42047:1,2017-04-03T08:00:00Z,27.8966,-93.5973,2.0,120.002438,17.37868234,-99999.0,'11111222,11111222,99999999' 
TABS,ioos:station:wmo:42047:1,2017-04-03T08:30:00Z,27.8966,-93.5973,2.0,124.1027045,13.09126426,-99999.0,'11111222,11111222,99999999' 
TABS,ioos:station:wmo:42047:1,2017-04-03T09:00:00Z,27.8966,-93.5973,2.0,115.0021073,14.10141837,-99999.0,'11111222,11111222,99999999' 
TABS,ioos:station:wmo:42047:1,2017-04-03T09:30:00Z,27.8966,-93.5973,2.0,112.3247246,14.6371172,-99999.0,'11111222,11111222,99999999' 
TABS,ioos:station:wmo:42047:1,2017-04-03T10:00:00Z,27.8966,-93.5973,2.0,130.2410202,14.14848402,-99999.0,'11111222,11111222,99999999' 
TABS,ioos:station:wmo:42047:1,2017-04-03T10:30:00Z,27.8966,-93.5973,2.0,126.7219308,13.94804646,-99999.0,'11111222,11111222,99999999' 
TABS,ioos:station:wmo:42047:1,2017-04-03T11:00:00Z,27.8966,-93.5973,2.0,125.3568001,16.20965145,-99999.0,'11111222,11111222,99999999' 
TABS,ioos:station:wmo:42047:1,2017-04-03T11:30:00Z,27.8966,-93.5973,2.0,139.9626983,17.7370939,-99999.0,'11111222,11111222,99999999' 
TABS,ioos:station:wmo:42047:1,2017-04-03T12:00:00Z,27.8966,-93.5973,2.0,137.9627703,17.92082866,-99999.0,'11111222,11111222,99999999' 
TABS,ioos:station:wmo:42047:1,2017-04-03T12:30:00Z,27.8966,-93.5973,2.0,144.1205822,17.35259347,-99999.0,'11111222,11111222,99999999' 
TABS,ioos:station:wmo:42047:1,2017-04-03T13:00:00Z,27.8966,-93.5973,2.0,148.724796,13.88816043,-99999.0,'11111222,11111222,99999999' 
TABS,ioos:station:wmo:42047:1,2017-04-03T13:30:00Z,27.8966,-93.5973,2.0,158.1372686,15.65598288,-99999.0,'11111222,11111222,99999999' 
TABS,ioos:station:wmo:42047:1,2017-04-03T14:00:00Z,27.8966,-93.5973,2.0,160.4490127,17.21237927,-99999.0,'11111222,11111222,99999999' 
TABS,ioos:station:wmo:42047:1,2017-04-03T14:30:00Z,27.8966,-93.5973,2.0,169.5229928,12.81362166,-99999.0,'11111222,11111222,99999999' 
TABS,ioos:station:wmo:42047:1,2017-04-03T15:00:00Z,27.8966,-93.5973,2.0,169.9040603,13.23492728,-99999.0,'11111222,11111222,99999999' 
TABS,ioos:station:wmo:42047:1,2017-04-03T15:30:00Z,27.8966,-93.5973,2.0,174.137722,12.04297721,-99999.0,'11111222,11111222,99999999' 
TABS,ioos:station:wmo:42047:1,2017-04-03T16:00:00Z,27.8966,-93.5973,2.0,169.8011505,10.61776342,-99999.0,'11111222,11111222,99999999' 
TABS,ioos:station:wmo:42047:1,2017-04-03T16:30:00Z,27.8966,-93.5973,2.0,184.2903967,9.757345951,-99999.0,'11133222,11111222,99999999' 
TABS,ioos:station:wmo:42047:1,2017-04-03T17:00:00Z,27.8966,-93.5973,2.0,171.3108718,9.1348399,-99999.0,'11133222,11111222,99999999' 
TABS,ioos:station:wmo:42047:1,2017-04-03T17:30:00Z,27.8966,-93.5973,2.0,173.8868197,8.075921,-99999.0,'11133222,11111222,99999999' 
TABS,ioos:station:wmo:42047:1,2017-04-03T18:00:00Z,27.8966,-93.5973,2.0,193.5915572,7.191397639,-99999.0,'11133222,11111222,99999999' 
TABS,ioos:station:wmo:42047:1,2017-04-03T18:30:00Z,27.8966,-93.5973,2.0,146.9844975,5.652786923,-99999.0,'11133222,11111222,99999999' 
TABS,ioos:station:wmo:42047:1,2017-04-03T19:00:00Z,27.8966,-93.5973,2.0,150.4645768,4.746841055,-99999.0,'11133222,11111222,99999999' 
TABS,ioos:station:wmo:42047:1,2017-04-03T19:30:00Z,27.8966,-93.5973,2.0,140.7926777,4.904079934,-99999.0,'11133222,11111222,99999999' 
TABS,ioos:station:wmo:42047:1,2017-04-03T20:00:00Z,27.8966,-93.5973,2.0,96.1372416,2.806082679,-99999.0,'11133222,11111222,99999999' 
TABS,ioos:station:wmo:42047:1,2017-04-03T20:30:00Z,27.8966,-93.5973,2.0,110.1323502,4.590479278,-99999.0,'11133222,11111222,99999999' 
TABS,ioos:station:wmo:42047:1,2017-04-03T21:00:00Z,27.8966,-93.5973,2.0,145.0644394,1.658945448,-99999.0,'11133222,11111222,99999999' 
TABS,ioos:station:wmo:42047:1,2017-04-03T21:30:00Z,27.8966,-93.5973,2.0,116.5649891,0.715541753,-99999.0,'11133222,11111222,99999999' 
TABS,ioos:station:wmo:42047:1,2017-04-03T22:00:00Z,27.8966,-93.5973,2.0,304.7863666,3.190109716,-99999.0,'11133222,11111222,99999999' 
TABS,ioos:station:wmo:42047:1,2017-04-03T22:30:00Z,27.8966,-93.5973,2.0,7.355543159,6.170777909,-99999.0,'11133222,11111222,99999999' 
TABS,ioos:station:wmo:42047:1,2017-04-03T23:00:00Z,27.8966,-93.5973,2.0,346.0208972,4.884669897,-99999.0,'11133222,11111222,99999999' 
TABS,ioos:station:wmo:42047:1,2017-04-03T23:30:00Z,27.8966,-93.5973,2.0,356.174759,10.04237522,-99999.0,'11111222,11111222,99999999' 
TABS,ioos:station:wmo:42047:1,2017-04-04T00:00:00Z,27.8966,-93.5973,2.0,19.93362397,12.81793275,-99999.0,'11111222,11111222,99999999' 
TABS,ioos:station:wmo:42047:1,2017-04-04T00:30:00Z,27.8966,-93.5973,2.0,5.883953736,13.16937736,-99999.0,'11111222,11111222,99999999' 
TABS,ioos:station:wmo:42047:1,2017-04-04T01:00:00Z,27.8966,-93.5973,2.0,16.88026605,16.08294127,-99999.0,'11111222,11111222,99999999' 
TABS,ioos:station:wmo:42047:1,2017-04-04T01:30:00Z,27.8966,-93.5973,2.0,45.34161581,15.42227285,-99999.0,'11111222,11111222,99999999' 
TABS,ioos:station:wmo:42047:1,2017-04-04T02:00:00Z,27.8966,-93.5973,2.0,42.46735171,17.92145083,-99999.0,'11111222,11111222,99999999' 
TABS,ioos:station:wmo:42047:1,2017-04-04T02:30:00Z,27.8966,-93.5973,2.0,46.64963193,19.65156991,-99999.0,'11111222,11111222,99999999' 
TABS,ioos:station:wmo:42047:1,2017-04-04T03:00:00Z,27.8966,-93.5973,2.0,53.07293588,16.01200799,-99999.0,'11111222,11111222,99999999' 
TABS,ioos:station:wmo:42047:1,2017-04-04T03:30:00Z,27.8966,-93.5973,2.0,69.2601508,13.13091391,-99999.0,'11111222,11111222,99999999' 
TABS,ioos:station:wmo:42047:1,2017-04-04T04:00:00Z,27.8966,-93.5973,2.0,79.87054278,12.56586646,-99999.0,'11111222,11111222,99999999' 
TABS,ioos:station:wmo:42047:1,2017-04-04T04:30:00Z,27.8966,-93.5973,2.0,93.89733096,12.35858002,-99999.0,'11111222,11111222,99999999' 
TABS,ioos:station:wmo:42047:1,2017-04-04T05:00:00Z,27.8966,-93.5973,2.0,106.9334574,11.94802494,-99999.0,'11111222,11111222,99999999' 
TABS,ioos:station:wmo:42047:1,2017-04-04T05:30:00Z,27.8966,-93.5973,2.0,107.2026813,15.58730894,-99999.0,'11111222,11111222,99999999' 
TABS,ioos:station:wmo:42047:1,2017-04-04T06:00:00Z,27.8966,-93.5973,2.0,116.0947415,16.89182643,-99999.0,'11111222,11111222,99999999' 
TABS,ioos:station:wmo:42047:1,2017-04-04T06:30:00Z,27.8966,-93.5973,2.0,110.391026,19.91814499,-99999.0,'11111222,11111222,99999999' 
TABS,ioos:station:wmo:42047:1,2017-04-04T07:00:00Z,27.8966,-93.5973,2.0,109.2963653,21.24342016,-99999.0,'11111222,11111222,99999999' 
TABS,ioos:station:wmo:42047:1,2017-04-04T07:30:00Z,27.8966,-93.5973,2.0,119.4523325,18.46653189,-99999.0,'11111222,11111222,99999999' 
TABS,ioos:station:wmo:42047:1,2017-04-04T08:00:00Z,27.8966,-93.5973,2.0,114.8252356,19.14956919,-99999.0,'11111222,11111222,99999999' 
TABS,ioos:station:wmo:42047:1,2017-04-04T08:30:00Z,27.8966,-93.5973,2.0,123.1279292,17.52936964,-99999.0,'11111222,11111222,99999999' 
TABS,ioos:station:wmo:42047:1,2017-04-04T09:00:00Z,27.8966,-93.5973,2.0,139.0147849,19.59251388,-99999.0,'11111222,11111222,99999999' 
TABS,ioos:station:wmo:42047:1,2017-04-04T09:30:00Z,27.8966,-93.5973,2.0,134.9757092,16.75136114,-99999.0,'11111222,11111222,99999999' 
TABS,ioos:station:wmo:42047:1,2017-04-04T10:00:00Z,27.8966,-93.5973,2.0,140.2762243,15.22488095,-99999.0,'11111222,11111222,99999999' 
TABS,ioos:station:wmo:42047:1,2017-04-04T10:30:00Z,27.8966,-93.5973,2.0,137.1056219,13.66345857,-99999.0,'11111222,11111222,99999999' 
TABS,ioos:station:wmo:42047:1,2017-04-04T11:00:00Z,27.8966,-93.5973,2.0,144.1809484,15.15654974,-99999.0,'11111222,11111222,99999999' 
TABS,ioos:station:wmo:42047:1,2017-04-04T11:30:00Z,27.8966,-93.5973,2.0,152.400189,14.61285051,-99999.0,'11111222,11111222,99999999' 
TABS,ioos:station:wmo:42047:1,2017-04-04T12:00:00Z,27.8966,-93.5973,2.0,174.4961057,11.57335301,-99999.0,'11111222,11111222,99999999' 
TABS,ioos:station:wmo:42047:1,2017-04-04T12:30:00Z,27.8966,-93.5973,2.0,175.4634475,12.77000392,-99999.0,'11111222,11111222,99999999' 
TABS,ioos:station:wmo:42047:1,2017-04-04T13:00:00Z,27.8966,-93.5973,2.0,194.3107973,10.11385189,-99999.0,'11111222,11111222,99999999' 
TABS,ioos:station:wmo:42047:1,2017-04-04T13:30:00Z,27.8966,-93.5973,2.0,189.4816078,9.651865105,-99999.0,'11133222,11111222,99999999' 
TABS,ioos:station:wmo:42047:1,2017-04-04T14:00:00Z,27.8966,-93.5973,2.0,194.2741243,10.50430864,-99999.0,'11111222,11111222,99999999' 
TABS,ioos:station:wmo:42047:1,2017-04-04T14:30:00Z,27.8966,-93.5973,2.0,200.7580653,7.956506771,-99999.0,'11133222,11111222,99999999' 
TABS,ioos:station:wmo:42047:1,2017-04-04T15:00:00Z,27.8966,-93.5973,2.0,198.1441028,7.482045175,-99999.0,'11133222,11111222,99999999' 
TABS,ioos:station:wmo:42047:1,2017-04-04T15:30:00Z,27.8966,-93.5973,2.0,217.7146649,5.966648976,-99999.0,'11133222,11111222,99999999' 
TABS,ioos:station:wmo:42047:1,2017-04-04T16:00:00Z,27.8966,-93.5973,2.0,256.2325406,3.613820693,-99999.0,'11133222,11111222,99999999' 